Weather History for King Salmon, AK

Change the Weather History Date:

Sunday, October 20, 2013

  Actual Average Record
Temperature  
Mean Temperature 43 °F 31 °F  
Max Temperature 48 °F 39 °F 57 °F (1957)
Min Temperature 37 °F 24 °F 3 °F (2001)
Degree Days  
Heating Degree Days 22 34  
Month to date heating degree days 403 580  
Since 1 July heating degree days 1440 1715  
Cooling Degree Days 0    
Month to date cooling degree days 0  
Year to date cooling degree days 4  
Moisture  
Dew Point 40 °F    
Average Humidity 0    
Maximum Humidity 0    
Minimum Humidity 0    
Precipitation  
Precipitation 0.11 in 0.06 in 0.60 in (1936)
Month to date precipitation 3.73 1.49  
Year to date precipitation 19.90 16.28  
Snow  
Snow 0.00 in 0.10 in 1.40 in (1977)
Month to date snowfall 0.0 1.2  
Since 1 July snowfall 0.0 1.3  
Since 1 September snowfall 0.0 1.3  
Snow Depth 0.00 in    
Sea Level Pressure  
Sea Level Pressure 29.70 in    
Wind  
Wind Speed 10 mph (SSE)    
Max Wind Speed 23 mph    
Max Gust Speed 29 mph    
Visibility 10 miles    
Events Rain    
T = Trace of Precipitation, MM = Missing Value Source: NWS Daily Summary

Daily Weather History Graph

Daily Weather History Graph

Search for Another Location

Airport:

Trip Planner

Search our weather history database for the weather conditions in past years. The results will help you decide how hot, cold, wet, or windy it might be!

Date:

Astronomy

Oct. 20, 2013 Rise Set
Actual Time 9:15 AM AKDT 7:05 PM AKDT
Civil Twilight 8:34 AM AKDT 7:46 PM AKDT
Nautical Twilight 7:48 AM AKDT 8:33 PM AKDT
Astronomical Twilight 7:01 AM AKDT 9:19 PM AKDT
Moon 7:52 PM AKDT (10/20) 11:32 AM AKDT (10/20)
Length of Visible Light 11h 11m
Length of Day
9h 49m
Waning Gibbous, 96% of the Moon is Illuminated
Oct 20
Waning Gibbous
Oct 26
Last Quarter
Nov 3
New
Nov 9
First Quarter
Nov 17
Full

Hourly Weather History & Observations

Time (AKDT) Temp. Windchill Dew Point Humidity Pressure Visibility Wind Dir Wind Speed Gust Speed Precip Events Conditions
12:54 AM 43.0 °F 36.4 °F 41.0 °F 93% 29.58 in 10.0 mi South 12.7 mph - N/A   Mostly Cloudy
1:54 AM 43.0 °F 38.2 °F 41.0 °F 93% 29.60 in 8.0 mi South 8.1 mph - 0.01 in Rain Light Rain
2:54 AM 43.0 °F 37.7 °F 41.0 °F 93% 29.62 in 10.0 mi SSE 9.2 mph - 0.00 in   Mostly Cloudy
3:01 AM 42.8 °F 38.0 °F 41.0 °F 93% 29.62 in 10.0 mi SSE 8.1 mph - N/A   Overcast
3:20 AM 42.8 °F 36.6 °F 41.0 °F 93% 29.62 in 10.0 mi SSE 11.5 mph - 0.00 in Rain Light Rain
3:54 AM 42.1 °F 36.1 °F 41.0 °F 96% 29.63 in 10.0 mi South 10.4 mph - 0.00 in Rain Light Rain
4:54 AM 41.0 °F 34.3 °F 41.0 °F 100% 29.64 in 10.0 mi SSE 11.5 mph - 0.03 in   Overcast
5:54 AM 39.9 °F 33.9 °F 39.0 °F 97% 29.65 in 10.0 mi SSE 9.2 mph - N/A   Mostly Cloudy
6:54 AM 41.0 °F 35.2 °F 39.9 °F 96% 29.67 in 10.0 mi SE 9.2 mph - 0.00 in Rain Light Rain
7:26 AM 41.0 °F 35.8 °F 39.2 °F 93% 29.67 in 9.0 mi SSE 8.1 mph - 0.02 in Rain Light Rain
7:54 AM 41.0 °F 37.1 °F 39.9 °F 96% 29.68 in 10.0 mi SE 5.8 mph - 0.02 in Rain Light Rain
8:54 AM 41.0 °F 37.1 °F 39.9 °F 96% 29.68 in 8.0 mi ESE 5.8 mph - 0.02 in Rain Light Rain
9:28 AM 41.0 °F 36.4 °F 39.2 °F 93% 29.68 in 10.0 mi East 6.9 mph - 0.01 in Rain Light Rain
9:54 AM 42.1 °F 38.4 °F 39.9 °F 92% 29.69 in 10.0 mi South 5.8 mph - 0.02 in Rain Light Rain
10:54 AM 42.1 °F 35.2 °F 39.9 °F 92% 29.70 in 10.0 mi SSE 12.7 mph - 0.00 in   Overcast
11:52 AM 42.8 °F 36.2 °F 41.0 °F 93% 29.72 in 7.0 mi South 12.7 mph - 0.01 in Rain Light Rain
11:54 AM 43.0 °F 35.7 °F 41.0 °F 93% 29.72 in 7.0 mi South 15.0 mph - 0.01 in Rain Light Rain
12:19 PM 44.6 °F 38.1 °F 42.8 °F 93% 29.72 in 10.0 mi South 13.8 mph - 0.00 in   Overcast
12:54 PM 45.0 °F 39.7 °F 42.1 °F 90% 29.73 in 10.0 mi South 10.4 mph - 0.00 in   Overcast
1:03 PM 44.6 °F 38.4 °F 41.0 °F 87% 29.74 in 10.0 mi SSW 12.7 mph - 0.00 in Rain Light Rain
1:19 PM 44.6 °F 38.8 °F 41.0 °F 87% 29.74 in 10.0 mi SSW 11.5 mph - 0.00 in   Overcast
1:54 PM 44.1 °F 39.5 °F 41.0 °F 89% 29.74 in 10.0 mi SSW 8.1 mph - 0.00 in   Overcast
2:54 PM 46.0 °F 41.0 °F 39.0 °F 76% 29.75 in 10.0 mi SSW 10.4 mph - N/A   Mostly Cloudy
3:54 PM 46.9 °F - 37.9 °F 71% 29.74 in 10.0 mi South 9.2 mph - N/A   Mostly Cloudy
4:54 PM 48.0 °F - 39.0 °F 71% 29.73 in 10.0 mi South 8.1 mph - N/A   Mostly Cloudy
5:54 PM 45.0 °F 39.7 °F 37.9 °F 76% 29.74 in 10.0 mi SSE 10.4 mph - 0.00 in   Scattered Clouds
6:54 PM 43.0 °F 37.2 °F 37.0 °F 80% 29.75 in 10.0 mi SSE 10.4 mph - N/A   Scattered Clouds
7:54 PM 43.0 °F 36.0 °F 37.9 °F 82% 29.76 in 7.0 mi SSE 13.8 mph 28.8 mph 0.00 in Rain Light Rain
8:54 PM 41.0 °F 32.8 °F 37.0 °F 86% 29.78 in 10.0 mi SSE 16.1 mph - 0.00 in   Mostly Cloudy
9:54 PM 41.0 °F 34.3 °F 37.0 °F 86% 29.79 in 10.0 mi South 11.5 mph - N/A   Mostly Cloudy
10:54 PM 37.9 °F 31.5 °F 35.1 °F 89% 29.80 in 10.0 mi SSE 9.2 mph - N/A   Partly Cloudy
11:54 PM 37.9 °F 30.0 °F 35.1 °F 89% 29.82 in 10.0 mi SSE 12.7 mph - N/A   Scattered Clouds